| time (UTC) | temp F | wind direction | speed knots | gust knots | rain 1hr in | rain 24hr in | rain mn in | humidity % | barometer mb |
| 20260506043903 | 66 | 128 | 0.0 | 1.7 | 0.00 | 0.00 | 0.00 | 52 | 1015.0 |
| 20260506043404 | 66 | 128 | 0.0 | 1.7 | 0.00 | 0.00 | 0.00 | 51 | 1015.2 |
| 20260506042904 | 65 | 128 | 0.0 | 0.0 | 0.00 | 0.00 | 0.00 | 51 | 1015.2 |
| 20260506042404 | 66 | 128 | 0.0 | 1.7 | 0.00 | 0.00 | 0.00 | 52 | 1015.1 |
| 20260506041904 | 66 | 128 | 0.0 | 1.7 | 0.00 | 0.00 | 0.00 | 52 | 1015.0 |
| 20260506041403 | 66 | 128 | 0.0 | 0.9 | 0.00 | 0.00 | 0.00 | 51 | 1015.1 |
| 20260506040904 | 66 | 128 | 0.0 | 0.0 | 0.00 | 0.00 | 0.00 | 52 | 1014.9 |
| 20260506040404 | 66 | 124 | 0.0 | 0.0 | 0.00 | 0.00 | 0.00 | 52 | 1014.8 |
| 20260506035403 | 66 | 124 | 0.0 | 1.7 | 0.00 | 0.00 | 0.00 | 52 | 1014.7 |
| 20260506034903 | 66 | 124 | 0.0 | 0.0 | 0.00 | 0.00 | 0.00 | 52 | 1014.8 |
| 20260506034404 | 66 | 124 | 0.0 | 0.0 | 0.00 | 0.00 | 0.00 | 53 | 1014.8 |
| 20260506033904 | 66 | 124 | 0.0 | 0.0 | 0.00 | 0.00 | 0.00 | 51 | 1014.9 |
| 20260506033403 | 66 | 128 | 0.0 | 0.9 | 0.00 | 0.00 | 0.00 | 51 | 1015.0 |
| 20260506032904 | 66 | 136 | 0.0 | 0.9 | 0.00 | 0.00 | 0.00 | 51 | 1015.1 |
| 20260506032404 | 66 | 136 | 0.0 | 0.0 | 0.00 | 0.00 | 0.00 | 51 | 1015.1 |
| 20260506031404 | 66 | 136 | 0.0 | 1.7 | 0.00 | 0.00 | 0.00 | 52 | 1015.1 |
| 20260506030904 | 66 | 136 | 0.0 | 0.0 | 0.00 | 0.00 | 0.00 | 52 | 1015.3 |
| 20260506030403 | 66 | 136 | 0.0 | 0.0 | 0.00 | 0.00 | 0.00 | 53 | 1015.1 |
| 20260506025904 | 66 | 136 | 0.0 | 0.0 | 0.00 | 0.00 | 0.00 | 53 | 1015.3 |
| 20260506025404 | 66 | 136 | 0.0 | 1.7 | 0.00 | 0.00 | 0.00 | 52 | 1015.4 |
| 20260506024903 | 66 | 136 | 0.0 | 1.7 | 0.00 | 0.00 | 0.00 | 52 | 1015.4 |
| 20260506024403 | 66 | 128 | 0.0 | 1.7 | 0.00 | 0.00 | 0.00 | 52 | 1015.1 |
| 20260506023904 | 66 | 128 | 0.0 | 1.7 | 0.00 | 0.00 | 0.00 | 52 | 1015.0 |
| 20260506022904 | 66 | 128 | 0.0 | 1.7 | 0.00 | 0.00 | 0.00 | 54 | 1014.9 |
| 20260506022404 | 66 | 128 | 0.0 | 0.9 | 0.00 | 0.00 | 0.00 | 52 | 1015.0 |
| 20260506021904 | 66 | 128 | 0.0 | 1.7 | 0.00 | 0.00 | 0.00 | 53 | 1015.1 |
| 20260506020904 | 66 | 129 | 0.0 | 1.7 | 0.00 | 0.00 | 0.00 | 52 | 1014.9 |
| 20260506015904 | 66 | 131 | 0.0 | 0.0 | 0.00 | 0.00 | 0.00 | 52 | 1014.9 |
| 20260506014404 | 66 | 166 | 0.0 | 1.7 | 0.00 | 0.00 | 0.00 | 53 | 1014.9 |
| 20260506013403 | 66 | 170 | 0.0 | 0.0 | 0.00 | 0.00 | 0.00 | 53 | 1014.8 |
| 20260506011903 | 66 | 176 | 0.0 | 0.9 | 0.00 | 0.00 | 0.00 | 53 | 1014.5 |
| 20260506011404 | 66 | 176 | 0.0 | 1.7 | 0.00 | 0.00 | 0.00 | 53 | 1014.5 |
| 20260506010904 | 66 | 176 | 0.0 | 1.7 | 0.00 | 0.00 | 0.00 | 53 | 1014.5 |
| 20260506010403 | 66 | 176 | 0.0 | 0.0 | 0.00 | 0.00 | 0.00 | 55 | 1014.5 |
| 20260506005404 | 66 | 176 | 0.0 | 0.0 | 0.00 | 0.00 | 0.00 | 55 | 1014.5 |
| 20260506003903 | 66 | 184 | 0.0 | 1.7 | 0.00 | 0.00 | 0.00 | 55 | 1014.5 |
| 20260506002904 | 66 | 216 | 0.0 | 0.9 | 0.00 | 0.00 | 0.00 | 55 | 1014.6 |
| 20260506002404 | 66 | 216 | 0.0 | 1.7 | 0.00 | 0.00 | 0.00 | 54 | 1014.5 |
| 20260506001903 | 66 | 216 | 0.0 | 1.7 | 0.00 | 0.00 | 0.00 | 54 | 1014.3 |
| 20260506001403 | 66 | 216 | 0.0 | 0.9 | 0.00 | 0.00 | 0.00 | 55 | 1014.3 |
| 20260506000904 | 67 | 216 | 0.0 | 1.7 | 0.00 | 0.00 | 0.00 | 54 | 1014.3 |
| 20260506000404 | 67 | 216 | 0.0 | 1.7 | 0.00 | 0.00 | 0.00 | 54 | 1014.5 |
| 20260505234904 | 68 | 216 | 0.0 | 0.0 | 0.00 | 0.00 | 0.00 | 53 | 1014.6 |
| 20260505234404 | 68 | 216 | 0.0 | 1.7 | 0.00 | 0.00 | 0.00 | 53 | 1014.5 |
| 20260505233404 | 68 | 216 | 0.0 | 0.0 | 0.00 | 0.00 | 0.00 | 52 | 1014.5 |
| 20260505231403 | 68 | 216 | 0.0 | 0.0 | 0.00 | 0.00 | 0.00 | 51 | 1014.6 |
| 20260505230904 | 68 | 216 | 0.0 | 1.7 | 0.00 | 0.00 | 0.00 | 52 | 1014.7 |
| 20260505230404 | 68 | 216 | 0.0 | 1.7 | 0.00 | 0.00 | 0.00 | 52 | 1014.6 |
| 20260505225904 | 69 | 216 | 0.0 | 1.7 | 0.00 | 0.00 | 0.00 | 52 | 1014.6 |
| 20260505225403 | 69 | 216 | 0.0 | 0.0 | 0.00 | 0.00 | 0.00 | 51 | 1014.5 |
| 20260505224903 | 69 | 216 | 0.0 | 0.0 | 0.00 | 0.00 | 0.00 | 51 | 1014.5 |
| 20260505224404 | 69 | 216 | 0.0 | 0.0 | 0.00 | 0.00 | 0.00 | 52 | 1014.6 |
| 20260505223404 | 69 | 216 | 0.0 | 0.0 | 0.00 | 0.00 | 0.00 | 51 | 1014.7 |
| 20260505222904 | 69 | 216 | 0.0 | 0.0 | 0.00 | 0.00 | 0.00 | 52 | 1014.8 |
| 20260505222403 | 69 | 216 | 0.0 | 1.7 | 0.00 | 0.00 | 0.00 | 50 | 1014.9 |
| 20260505221904 | 69 | 216 | 0.0 | 0.9 | 0.00 | 0.00 | 0.00 | 51 | 1014.9 |
| 20260505221404 | 70 | 216 | 0.0 | 0.0 | 0.00 | 0.00 | 0.00 | 52 | 1014.9 |
| 20260505220404 | 69 | 216 | 0.0 | 1.7 | 0.00 | 0.00 | 0.00 | 52 | 1014.9 |
| 20260505215904 | 70 | 216 | 0.0 | 1.7 | 0.00 | 0.00 | 0.00 | 52 | 1015.0 |
| 20260505215404 | 70 | 216 | 0.0 | 1.7 | 0.00 | 0.00 | 0.00 | 48 | 1014.5 |
| 20260505214903 | 70 | 212 | 0.0 | 1.7 | 0.00 | 0.00 | 0.00 | 48 | 1014.4 |
| 20260505214403 | 70 | 212 | 0.0 | 1.7 | 0.00 | 0.00 | 0.00 | 48 | 1014.6 |
| 20260505213904 | 70 | 212 | 0.0 | 1.7 | 0.00 | 0.00 | 0.00 | 49 | 1014.7 |
| 20260505213404 | 70 | 205 | 0.9 | 1.7 | 0.00 | 0.00 | 0.00 | 49 | 1014.7 |
| 20260505212404 | 70 | 226 | 0.0 | 1.7 | 0.00 | 0.00 | 0.00 | 49 | 1014.6 |
| 20260505211904 | 70 | 226 | 0.0 | 1.7 | 0.00 | 0.00 | 0.00 | 47 | 1014.7 |
| 20260505210904 | 70 | 216 | 0.9 | 1.7 | 0.00 | 0.00 | 0.00 | 49 | 1014.7 |
| 20260505210403 | 71 | 212 | 0.0 | 2.6 | 0.00 | 0.00 | 0.00 | 48 | 1014.7 |
| 20260505205904 | 71 | 206 | 0.0 | 1.7 | 0.00 | 0.00 | 0.00 | 49 | 1014.8 |
| 20260505205403 | 71 | 206 | 0.9 | 1.7 | 0.00 | 0.00 | 0.00 | 47 | 1014.9 |
| 20260505204904 | 71 | 227 | 0.9 | 1.7 | 0.00 | 0.00 | 0.00 | 46 | 1014.8 |
| 20260505204403 | 71 | 226 | 0.9 | 1.7 | 0.00 | 0.00 | 0.00 | 47 | 1014.9 |
| 20260505203904 | 71 | 226 | 0.0 | 0.9 | 0.00 | 0.00 | 0.00 | 48 | 1014.8 |
| 20260505203403 | 71 | 226 | 0.0 | 1.7 | 0.00 | 0.00 | 0.00 | 47 | 1014.8 |
| 20260505202904 | 71 | 230 | 0.0 | 1.7 | 0.00 | 0.00 | 0.00 | 46 | 1014.7 |
| 20260505202403 | 71 | 253 | 0.0 | 1.7 | 0.00 | 0.00 | 0.00 | 47 | 1014.7 |
| 20260505201904 | 71 | 214 | 0.0 | 1.7 | 0.00 | 0.00 | 0.00 | 46 | 1015.0 |
| 20260505201404 | 72 | 247 | 0.0 | 1.7 | 0.00 | 0.00 | 0.00 | 48 | 1015.1 |
| 20260505200904 | 72 | 214 | 0.9 | 2.6 | 0.00 | 0.00 | 0.00 | 47 | 1015.0 |
| 20260505200403 | 71 | 225 | 0.0 | 0.9 | 0.00 | 0.00 | 0.00 | 47 | 1015.2 |
| 20260505195903 | 71 | 202 | 0.9 | 5.2 | 0.00 | 0.00 | 0.00 | 43 | 1015.4 |
| 20260505195404 | 72 | 249 | 0.9 | 2.6 | 0.00 | 0.00 | 0.00 | 45 | 1015.4 |
| 20260505194903 | 72 | 247 | 0.0 | 1.7 | 0.00 | 0.00 | 0.00 | 44 | 1015.3 |
| 20260505194404 | 72 | 223 | 0.0 | 1.7 | 0.00 | 0.00 | 0.00 | 43 | 1015.5 |
| 20260505193904 | 73 | 241 | 0.9 | 2.6 | 0.00 | 0.00 | 0.00 | 45 | 1015.6 |
| 20260505193403 | 72 | 226 | 0.9 | 1.7 | 0.00 | 0.00 | 0.00 | 46 | 1015.7 |
| 20260505192904 | 73 | 274 | 0.0 | 1.7 | 0.00 | 0.00 | 0.00 | 45 | 1015.6 |
| 20260505192403 | 73 | 218 | 0.0 | 1.7 | 0.00 | 0.00 | 0.00 | 48 | 1015.7 |
| 20260505191404 | 75 | 280 | 0.9 | 1.7 | 0.00 | 0.00 | 0.00 | 46 | 1015.9 |
| 20260505190903 | 75 | 259 | 0.0 | 0.9 | 0.00 | 0.00 | 0.00 | 45 | 1015.9 |
| 20260505190404 | 75 | 261 | 0.9 | 1.7 | 0.00 | 0.00 | 0.00 | 47 | 1016.0 |
| 20260505185904 | 75 | 263 | 0.0 | 0.9 | 0.00 | 0.00 | 0.00 | 45 | 1016.0 |
| 20260505185403 | 74 | 264 | 0.9 | 1.7 | 0.00 | 0.00 | 0.00 | 45 | 1016.1 |
| 20260505184904 | 73 | 246 | 0.0 | 0.9 | 0.00 | 0.00 | 0.00 | 44 | 1016.1 |
| 20260505184404 | 74 | 233 | 0.9 | 1.7 | 0.00 | 0.00 | 0.00 | 42 | 1016.0 |
| 20260505183904 | 74 | 296 | 0.0 | 1.7 | 0.00 | 0.00 | 0.00 | 42 | 1016.0 |
| 20260505183404 | 74 | 277 | 0.9 | 1.7 | 0.00 | 0.00 | 0.00 | 41 | 1016.1 |
| 20260505182404 | 75 | 293 | 0.9 | 1.7 | 0.00 | 0.00 | 0.00 | 42 | 1016.1 |
| 20260505181903 | 75 | 256 | 0.9 | 1.7 | 0.00 | 0.00 | 0.00 | 44 | 1016.3 |
| 20260505181404 | 75 | 250 | 0.9 | 2.6 | 0.00 | 0.00 | 0.00 | 45 | 1016.4 |
| 20260505180903 | 74 | 236 | 0.9 | 1.7 | 0.00 | 0.00 | 0.00 | 45 | 1016.4 |
| 20260505180404 | 74 | 247 | 0.9 | 1.7 | 0.00 | 0.00 | 0.00 | 44 | 1016.5 |
| 20260505175904 | 75 | 250 | 0.9 | 1.7 | 0.00 | 0.00 | 0.00 | 45 | 1016.5 |
| 20260505175403 | 75 | 269 | 0.9 | 1.7 | 0.00 | 0.00 | 0.00 | 46 | 1016.8 |
| 20260505174903 | 75 | 279 | 0.0 | 2.6 | 0.00 | 0.00 | 0.00 | 45 | 1017.0 |
| 20260505174404 | 74 | 272 | 0.9 | 1.7 | 0.00 | 0.00 | 0.00 | 46 | 1017.0 |
| 20260505173904 | 74 | 293 | 0.9 | 1.7 | 0.00 | 0.00 | 0.00 | 48 | 1017.0 |
| 20260505173404 | 73 | 257 | 0.9 | 1.7 | 0.00 | 0.00 | 0.00 | 49 | 1017.0 |
| 20260505172904 | 73 | 260 | 0.9 | 1.7 | 0.00 | 0.00 | 0.00 | 49 | 1017.1 |
| 20260505172403 | 73 | 221 | 0.9 | 1.7 | 0.00 | 0.00 | 0.00 | 47 | 1017.0 |
| 20260505171904 | 74 | 260 | 0.9 | 1.7 | 0.00 | 0.00 | 0.00 | 45 | 1017.2 |
| 20260505171404 | 74 | 274 | 0.9 | 1.7 | 0.00 | 0.00 | 0.00 | 46 | 1017.3 |
| 20260505170403 | 75 | 253 | 0.9 | 1.7 | 0.00 | 0.00 | 0.00 | 47 | 1017.4 |
| 20260505165904 | 75 | 320 | 0.9 | 2.6 | 0.00 | 0.00 | 0.00 | 46 | 1017.3 |
| 20260505165404 | 74 | 294 | 0.0 | 1.7 | 0.00 | 0.00 | 0.00 | 48 | 1017.2 |
| 20260505164904 | 73 | 267 | 0.9 | 2.6 | 0.00 | 0.00 | 0.00 | 46 | 1017.2 |
| 20260505164404 | 74 | 262 | 0.0 | 0.9 | 0.00 | 0.00 | 0.00 | 45 | 1017.2 |
| 20260505163904 | 74 | 220 | 0.9 | 1.7 | 0.00 | 0.00 | 0.00 | 46 | 1017.1 |
| 20260505163403 | 73 | 125 | 0.9 | 1.7 | 0.00 | 0.00 | 0.00 | 44 | 1017.2 |
| 20260505162903 | 73 | 268 | 0.9 | 2.6 | 0.00 | 0.00 | 0.00 | 45 | 1017.2 |
| 20260505161904 | 72 | 319 | 0.9 | 2.6 | 0.00 | 0.00 | 0.00 | 43 | 1017.4 |
| 20260505161404 | 73 | 263 | 0.9 | 1.7 | 0.00 | 0.00 | 0.00 | 42 | 1017.3 |
| 20260505160903 | 73 | 245 | 0.9 | 1.7 | 0.00 | 0.00 | 0.00 | 47 | 1017.3 |
| 20260505160404 | 72 | 266 | 0.0 | 0.9 | 0.00 | 0.00 | 0.00 | 44 | 1017.3 |
| 20260505152904 | 70 | 280 | 0.9 | 0.9 | 0.00 | 0.00 | 0.00 | 53 | 1017.4 |
| 20260505152404 | 70 | 259 | 0.0 | 1.7 | 0.00 | 0.00 | 0.00 | 54 | 1017.4 |
| 20260505151403 | 69 | 236 | 0.9 | 0.9 | 0.00 | 0.00 | 0.00 | 56 | 1017.5 |
| 20260505150903 | 69 | 257 | 0.0 | 1.7 | 0.00 | 0.00 | 0.00 | 56 | 1017.6 |
| 20260505140404 | 62 | 319 | 0.0 | 1.7 | 0.00 | 0.00 | 0.00 | 62 | 1017.5 |
| 20260505124904 | 57 | 122 | 0.0 | 0.9 | 0.00 | 0.00 | 0.00 | 66 | 1016.9 |
| 20260505124403 | 57 | 122 | 0.0 | 1.7 | 0.00 | 0.00 | 0.00 | 66 | 1016.8 |
| 20260505123904 | 57 | 122 | 0.0 | 1.7 | 0.00 | 0.00 | 0.00 | 65 | 1016.7 |
| 20260505123403 | 57 | 122 | 0.0 | 1.7 | 0.00 | 0.00 | 0.00 | 65 | 1016.8 |
| 20260505122903 | 57 | 122 | 0.0 | 1.7 | 0.00 | 0.00 | 0.00 | 66 | 1016.8 |
| 20260505122404 | 57 | 122 | 0.0 | 1.7 | 0.00 | 0.00 | 0.00 | 65 | 1016.8 |
| 20260505121903 | 57 | 122 | 0.0 | 1.7 | 0.00 | 0.00 | 0.00 | 64 | 1016.8 |
| 20260505121403 | 57 | 122 | 0.9 | 1.7 | 0.00 | 0.00 | 0.00 | 66 | 1016.8 |
| 20260505120403 | 56 | 122 | 0.0 | 0.0 | 0.00 | 0.00 | 0.00 | 66 | 1016.8 |
| 20260505115904 | 56 | 122 | 0.0 | 0.0 | 0.00 | 0.00 | 0.00 | 64 | 1016.8 |
| 20260505115404 | 56 | 122 | 0.0 | 1.7 | 0.00 | 0.00 | 0.00 | 67 | 1016.7 |
| 20260505114903 | 57 | 123 | 0.0 | 1.7 | 0.00 | 0.00 | 0.00 | 68 | 1016.7 |
| 20260505113903 | 57 | 124 | 0.0 | 0.0 | 0.00 | 0.00 | 0.00 | 65 | 1016.4 |
| 20260505113404 | 57 | 124 | 0.0 | 0.0 | 0.00 | 0.00 | 0.00 | 64 | 1016.3 |
| 20260505112904 | 57 | 124 | 0.0 | 0.0 | 0.00 | 0.00 | 0.00 | 63 | 1016.1 |
| 20260505112404 | 57 | 124 | 0.0 | 0.0 | 0.00 | 0.00 | 0.00 | 62 | 1016.1 |
| 20260505111904 | 57 | 124 | 0.0 | 0.0 | 0.00 | 0.00 | 0.00 | 62 | 1016.0 |
| 20260505111404 | 56 | 124 | 0.0 | 1.7 | 0.00 | 0.00 | 0.00 | 62 | 1016.0 |
| 20260505110904 | 56 | 124 | 0.0 | 0.9 | 0.00 | 0.00 | 0.00 | 62 | 1015.9 |
| 20260505110403 | 56 | 124 | 0.0 | 1.7 | 0.00 | 0.00 | 0.00 | 61 | 1016.1 |
| 20260505101904 | 56 | 124 | 0.0 | 1.7 | 0.00 | 0.00 | 0.00 | 60 | 1015.8 |
| 20260505101404 | 56 | 124 | 0.0 | 1.7 | 0.00 | 0.00 | 0.00 | 60 | 1015.8 |
| 20260505100904 | 56 | 124 | 0.0 | 1.7 | 0.00 | 0.00 | 0.00 | 60 | 1016.0 |
| 20260505100404 | 56 | 124 | 0.0 | 1.7 | 0.00 | 0.00 | 0.00 | 60 | 1016.1 |
| 20260505095903 | 56 | 124 | 0.0 | 1.7 | 0.00 | 0.00 | 0.00 | 61 | 1016.2 |
| 20260505095404 | 56 | 124 | 0.0 | 1.7 | 0.00 | 0.00 | 0.00 | 61 | 1016.2 |
| 20260505094903 | 56 | 124 | 0.0 | 1.7 | 0.00 | 0.00 | 0.00 | 61 | 1016.0 |
| 20260505094404 | 56 | 124 | 0.0 | 0.0 | 0.00 | 0.00 | 0.00 | 60 | 1016.2 |
| 20260505093904 | 56 | 124 | 0.0 | 1.7 | 0.00 | 0.00 | 0.00 | 60 | 1016.2 |
| 20260505093403 | 57 | 124 | 0.0 | 1.7 | 0.00 | 0.00 | 0.00 | 60 | 1016.1 |
| 20260505092904 | 57 | 124 | 0.0 | 1.7 | 0.00 | 0.00 | 0.00 | 59 | 1016.1 |
| 20260505092404 | 57 | 124 | 0.9 | 1.7 | 0.00 | 0.00 | 0.00 | 59 | 1016.2 |
| 20260505091903 | 57 | 109 | 0.0 | 1.7 | 0.00 | 0.00 | 0.00 | 58 | 1016.2 |
| 20260505091404 | 57 | 109 | 0.0 | 1.7 | 0.00 | 0.00 | 0.00 | 58 | 1016.1 |
| 20260505090904 | 57 | 109 | 0.0 | 1.7 | 0.00 | 0.00 | 0.00 | 58 | 1016.1 |
| 20260505090404 | 57 | 91 | 0.0 | 1.7 | 0.00 | 0.00 | 0.00 | 57 | 1016.3 |
| 20260505085904 | 57 | 91 | 0.0 | 1.7 | 0.00 | 0.00 | 0.00 | 58 | 1016.3 |
| 20260505084904 | 57 | 86 | 0.0 | 1.7 | 0.00 | 0.00 | 0.00 | 59 | 1016.3 |
| 20260505084403 | 57 | 86 | 0.0 | 1.7 | 0.00 | 0.00 | 0.00 | 59 | 1016.4 |
| 20260505083403 | 57 | 86 | 0.0 | 1.7 | 0.00 | 0.00 | 0.00 | 60 | 1016.4 |
| 20260505082904 | 57 | 86 | 0.0 | 1.7 | 0.00 | 0.00 | 0.00 | 60 | 1016.4 |
| 20260505081904 | 57 | 86 | 0.0 | 0.9 | 0.00 | 0.00 | 0.00 | 60 | 1016.3 |
| 20260505080404 | 57 | 86 | 0.0 | 1.7 | 0.00 | 0.00 | 0.00 | 61 | 1016.3 |
| 20260505074904 | 57 | 86 | 0.0 | 1.7 | 0.00 | 0.00 | 0.00 | 61 | 1016.4 |
| 20260505073904 | 57 | 86 | 0.0 | 1.7 | 0.00 | 0.00 | 0.00 | 59 | 1016.4 |
| 20260505073404 | 58 | 86 | 0.0 | 1.7 | 0.00 | 0.00 | 0.00 | 58 | 1016.4 |
| 20260505072904 | 58 | 86 | 0.0 | 0.9 | 0.00 | 0.00 | 0.00 | 58 | 1016.4 |
| 20260505072404 | 58 | 86 | 0.0 | 0.9 | 0.00 | 0.00 | 0.00 | 58 | 1016.4 |
| 20260505071904 | 59 | 86 | 0.0 | 1.7 | 0.00 | 0.00 | 0.00 | 56 | 1016.4 |
| 20260505071404 | 58 | 86 | 0.0 | 1.7 | 0.00 | 0.00 | 0.00 | 57 | 1016.4 |
| 20260505070904 | 59 | 86 | 0.0 | 1.7 | 0.00 | 0.00 | 0.00 | 57 | 1016.4 |
| 20260505065904 | 58 | 86 | 0.0 | 1.7 | 0.00 | 0.00 | 0.00 | 57 | 1016.3 |
| 20260505065404 | 59 | 86 | 0.0 | 0.9 | 0.00 | 0.00 | 0.00 | 57 | 1016.3 |
| 20260505064905 | 59 | 86 | 0.0 | 1.7 | 0.00 | 0.00 | 0.00 | 57 | 1016.4 |
| 20260505064403 | 59 | 86 | 0.0 | 1.7 | 0.00 | 0.00 | 0.00 | 56 | 1016.4 |
| 20260505063404 | 59 | 86 | 0.0 | 1.7 | 0.00 | 0.00 | 0.00 | 56 | 1016.4 |
| 20260505062904 | 59 | 86 | 0.0 | 1.7 | 0.00 | 0.00 | 0.00 | 56 | 1016.4 |
| 20260505062404 | 59 | 86 | 0.0 | 1.7 | 0.00 | 0.00 | 0.00 | 56 | 1016.5 |
| 20260505061904 | 59 | 86 | 0.0 | 1.7 | 0.00 | 0.00 | 0.00 | 55 | 1016.6 |
| 20260505061404 | 59 | 86 | 0.0 | 1.7 | 0.00 | 0.00 | 0.00 | 55 | 1016.6 |
| 20260505060903 | 59 | 85 | 0.0 | 1.7 | 0.00 | 0.00 | 0.00 | 56 | 1016.6 |
| 20260505060404 | 59 | 85 | 0.0 | 1.7 | 0.00 | 0.00 | 0.00 | 56 | 1016.6 |
| 20260505055903 | 59 | 85 | 0.0 | 1.7 | 0.00 | 0.00 | 0.00 | 56 | 1016.7 |
| 20260505054404 | 59 | 68 | 0.0 | 0.9 | 0.00 | 0.00 | 0.00 | 58 | 1016.8 |
| 20260505053904 | 59 | 168 | 0.0 | 1.7 | 0.00 | 0.00 | 0.00 | 58 | 1016.8 |
| 20260505053403 | 59 | 168 | 0.0 | 0.9 | 0.00 | 0.00 | 0.00 | 57 | 1016.8 |
| 20260505052904 | 59 | 168 | 0.0 | 1.7 | 0.00 | 0.00 | 0.00 | 57 | 1016.7 |
| 20260505051904 | 59 | 169 | 0.0 | 1.7 | 0.00 | 0.00 | 0.00 | 57 | 1016.8 |
| 20260505051404 | 59 | 168 | 0.0 | 1.7 | 0.00 | 0.00 | 0.00 | 58 | 1016.9 |
| 20260505050904 | 59 | 168 | 0.0 | 1.7 | 0.00 | 0.00 | 0.00 | 57 | 1016.9 |
| 20260505050404 | 59 | 169 | 0.0 | 1.7 | 0.00 | 0.00 | 0.00 | 57 | 1016.8 |